DELTA 1 R/B(1), 10062

Orbit data source: Space-Track

DELTA 1 R/B(1), 10062 is space debris in LEO originally from a launch on Thu, 16 Jun 1977 UTC launched from the Air Force Eastern Test Range (AFETR). Debris objects in space refer to the collection of defunct objects orbiting the Earth. Examples of debris include non-operational satellites, rocket bodies, and fragments generated from explosions, collisions, or faulty payload assembly.

Loading next visibility...
Identifier
10062, 1977-048B
Orbit
LEO
Last TLE update
15 hours ago
Origin
Manufacturer
MDAC-HB
Mission
Spacecraft
Bus & Motor
DELTA/TR-201, Unknown motor
Mass
845 kg wet, 845 kg dry
Launch date (UTC)
1977-06-16 (48 years ago)
Launch vehicle
Unknown
Launch site
Air Force Eastern Test Range (AFETR)
Object type
Payload
Rocket body
Debris
Shape & HBR
Cyl + 1 Nozzle, 6.39 m
Radar Cross Section
7.796 m², Large (>1 m²)

Expand to show TLE details & history

TLE from 15 hours ago
0 DELTA 1 R/B(1)
1 10062U 77048B   25183.88697778  .00000411  00000-0  11982-3 0  9994
2 10062  28.4182  54.9239 0728046   8.4570 352.7546 13.38652013340178
Epoch: 2025-07-02T21:17Z
TLE epoch observation values (Epoch: 2025-07-02T21:17:14.88Z)
Latitude
-0.00003°
Longitude
174.4502°
Altitude
572.403 km
Speed
7.845 km/s
True Right ascension
03h 39m 41s
True Declination
0° 00' 00"
Sunlit
Object was in daylight at epoch
Visualization orbit readout
Latitude
24.54031°
Longitude
-131.56301°
Altitude
719.866 km
Speed
7.694 km/s
Apparent Right ascension
09h 06m 53s
Apparent Declination
-6° 47' 01"
Sunlit
Object is in daylight
Visualization observer readout
Local Sidereal Time
23:38:48
Azimuth
56.031° ENE
Elevation
-42.543°
Doppler factor
1
Orbital elements
Apogee altitude
1,663.993 km
Perigee altitude
572.454 km
Semi-major axis
7,496.36 km
Eccentricity
0.0728
Inclination
28.4182°
RAAN
54.9239°
Arg. of periapsis
8.457°
True anomaly
Unknown
Mean anomaly
352.7546°
Eccentric anomaly
Unknown
Mean motion
3.34401 °/min
Orbital period
107.66 mins
BSTAR
0.00011982
Loading maneuver chart data...
Loading SW <> Apogee altitude chart data...
Loading historical data...
Loading historical data...
Loading historical data...
Loading historical data...
Loading historical data...
Loading historical data...
Loading historical data...

DELTA 1 R/B(1) Visibility forecast

Observer location: undefined°, undefined°

Span
Click to sort rows by Start time (UTC) header in descending order
Start Az.
Max El. time (UTC)
Max El. Az.
Max El.
End time (UTC)
End Az.
7 mins2025-07-03 20:53:14.146Z208.151° SW2025-07-03 20:56:14.146Z162.391° S23.417°2025-07-03 21:00:14.146Z121.386° SE
9 mins2025-07-03 22:46:14.146Z227.949° WSW2025-07-03 22:49:14.146Z190.466° SSW25.196°2025-07-03 22:55:14.146Z133.967° SE
9 mins2025-07-04 00:40:14.146Z230.024° WSW2025-07-04 00:44:14.146Z194.501° SSW18.047°2025-07-04 00:49:14.146Z159.536° S
|